Regional Weather Roundup
Issued by NWS

Home | Current Version | Previous Version | Text Only | Print | Product List | Glossary On
Versions: 1 2 3 4 5 6 7 8 9 10 11 12 13 14 15 16 17 18 19 20 21 22 23 24 25 26 27 28 29 30 31 32 33 34 35 36 37 38 39 40 41 42 43 44 45 46 47 48 49 50
647
ASUS43 KDTX 232210
RWRMI
MICHIGAN HOURLY REGIONAL WEATHER ROUNDUP
NATIONAL WEATHER SERVICE DETROIT/PONTIAC MI
600 PM EDT SUN APR 23 2017

NOTE: "FAIR" INDICATES FEW OR NO CLOUDS BELOW 12,000 FEET WITH NO
SIGNIFICANT WEATHER AND/OR OBSTRUCTION TO VISIBILITY.

MIZ047>049-052>055-059>063-066>070-074>076-081>083-232300-
SOUTHEAST LOWER MICHIGAN

CITY           SKY/WX    TMP DP  RH WIND       PRES   REMARKS
ADRIAN         SUNNY     66  33  29 S10       30.05S
ALMA           SUNNY     69  31  24 CALM      30.02S
ANN ARBOR      SUNNY     65  35  33 SE9       30.04S
BAD AXE        SUNNY     50  38  61 E10       30.08R
CARO           SUNNY     68  34  28 CALM      30.01F
DETROIT CITY   SUNNY     65  37  35 S10       30.05R
DETROIT        MOSUNNY   64  33  31 S12       30.06S
FLINT          SUNNY     68  33  27 VRB6      30.03S
GROSSE ILE     SUNNY     56  41  58 S6        30.05F
HILLSDALE      SUNNY     68  28  22 CALM      30.03S
HOWELL         SUNNY     68  18  15 W7        30.04R

CITY           SKY/WX    TMP DP  RH WIND       PRES   REMARKS
JACKSON        SUNNY     69  24  18 CALM      30.03S
LAMBERTVILLE   SUNNY     65  28  25 E5        30.04F
LANSING        SUNNY     68  27  21 N7        30.04S
LAPEER         FAIR      69  28  21 SW3       30.03S
MASON          SUNNY     67  35  29 CALM      30.04S
MONROE         SUNNY     63  25  23 SE7       30.05S
MT. CLEMENS    MOSUNNY   62  42  47 S14       30.03S
PONTIAC        MOSUNNY   68  24  19 VRB3      30.02S
PORT HOPE        N/A     42  38  85 NE9       30.08R
PORT HURON     SUNNY     66  32  28 S9        30.04R
TRI CITIES     SUNNY     58  45  62 NE17      30.04R
MIDLAND        FAIR      56  39  53 E16       30.04R
TROY           SUNNY     67  31  26 S9        30.06R
SAGINAW HB     SUNNY     70  36  28 N10       30.01S
$$
MIZ043>046-050>051-056>058-064>065-071>073-077>080-232300-
SOUTHWEST LOWER MICHIGAN

CITY           SKY/WX    TMP DP  RH WIND       PRES   REMARKS
BATTLE CREEK   SUNNY     68  24  19 VRB3      30.04S
BENTON HARBOR  SUNNY     62  27  26 W7        30.06F
BIG RAPIDS     SUNNY     66  31  26 NW5       30.03R
COLDWATER      SUNNY     68  29  23 CALM      30.03S
FREMONT        FAIR      67  31  26 W12       30.04R
HOLLAND        SUNNY     64  30  27 W6        30.06F
GRAND RAPIDS   MOSUNNY   68  31  25 VRB3      30.04S
IONIA          FAIR      69  30  23 NW3       30.03S
KALAMAZOO      SUNNY     70  22  16 N7        30.04S
LUDINGTON      SUNNY     53  40  61 N9        30.07R
MARSHALL       SUNNY     70  24  17 CALM      30.03S
MOUNT PLEASANT SUNNY     69  33  26 W3        30.01S
MUSKEGON       MOSUNNY   57  36  45 W6        30.06F
SOUTH HAVEN    SUNNY     62  28  27 NW5       30.06S
$$
MIZ016>042-232300-
NORTHERN LOWER MICHIGAN

CITY           SKY/WX    TMP DP  RH WIND       PRES   REMARKS
ALPENA         CLOUDY    48  30  49 N15       30.10R
BEAVER ISLAND  CLOUDY    41  24  50 N13       30.15F
BELLAIRE       MOSUNNY   47  32  55 N7        30.13R
CADILLAC       SUNNY     55  36  50 N12       30.06R
CHARLEVOIX     CLOUDY    39  31  72 N9        30.18S WCI  33
FRANKFORT      SUNNY     44  31  59 NE9G17    30.10F
GAYLORD        CLOUDY    53  33  46 VRB3      30.08R
GRAYLING       SUNNY     58  37  45 N13G20    30.07R
HARBOR SPRINGS CLOUDY    45  28  50 N6        30.14R
HOUGHTON LAKE  SUNNY     63  38  39 W12       30.04R
MANISTEE       SUNNY     58  39  49 N7        30.07R
OSCODA         SUNNY     50  34  55 NE15      30.08R
PELLSTON       CLOUDY    45  26  47 NW13      30.14R
ROGERS CITY    MOSUNNY   45  28  52 N9        30.13R
TRAVERSE CITY  MOSUNNY   44  30  57 N14       30.13R
$$
MIZ007>008-015-232300-
EASTERN UPPER MICHIGAN

CITY           SKY/WX    TMP DP  RH WIND       PRES   REMARKS
KINROSS        SUNNY     37  21  52 NW14      30.14R WCI  28
MACKINAC ISLAN CLOUDY    43  23  45 VRB8      30.13R
NEWBERRY       MOSUNNY   36  20  51 N12       30.15F WCI  28
S. S. MARIE    MOSUNNY   39  26  59 NW13      30.14R WCI  31
MUNISING         N/A     34  23  64 NE14      30.19S WCI  25
$$
MIZ004>006-011>014-085-232300-
CENTRAL UPPER MICHIGAN

CITY           SKY/WX    TMP DP  RH WIND       PRES   REMARKS
MANISTIQUE     CLOUDY    41  21  44 NE9G16    30.14F
ESCANABA       CLOUDY    40  21  46 NE10      30.16S WCI  33
MENOMINEE      SUNNY     40  31  70 E15       30.14S WCI  32
SAWYER-GWINN   PTSUNNY   32  21  64 NE9       30.17R WCI  24
$$
MIZ001>003-009>011-084-232300-
WESTERN UPPER MICHIGAN

CITY           SKY/WX    TMP DP  RH WIND       PRES   REMARKS
IRON MOUNTAIN  MOSUNNY   43  27  53 VRB5      30.11S
HOUGHTON       CLOUDY    33  23  66 SE8       30.17S WCI  26
COPPER HARBOR    N/A     33  16  49 E3        30.20S
IRONWOOD       CLOUDY    39  32  76 E12       30.12F WCI  32
$$

ABBREVIATIONS USED IN REMARKS
   TC - TEMPERATURE IN CELSIUS
  WCI - WIND CHILL INDEX
   HX - HEAT INDEX
  VSB - VISIBILITY





USA.gov is the U.S. government's official web portal to all federal, state and local government web resources and services.